Weather History for Lakeland Region, FL

Change the Weather History Date:

Thursday, February 6, 2014

  Actual Average Record
Temperature  
Mean Temperature 60 °F -  
Max Temperature 69 °F 69 °F 86 °F (1986)
Min Temperature 50 °F 50 °F 30 °F (2009)
Degree Days  
Heating Degree Days 6    
Growing Degree Days 10 (Base 50)    
Moisture  
Dew Point 60 °F    
Average Humidity 89    
Maximum Humidity 100    
Minimum Humidity 68    
Precipitation  
Precipitation 0.00 in - - ()
Sea Level Pressure  
Sea Level Pressure 30.11 in    
Wind  
Wind Speed 4 mph (NNE)    
Max Wind Speed 15 mph    
Max Gust Speed 22 mph    
Visibility 8 miles    
Events      
Averages and records for this station are not official NWS values.
T = Trace of Precipitation, MM = Missing Value Source: NWS Daily Summary

Daily Weather History Graph

Daily Weather History Graph

Search for Another Location

Airport:

Trip Planner

Search our weather history database for the weather conditions in past years. The results will help you decide how hot, cold, wet, or windy it might be!

Date:

Astronomy

Feb. 06, 2014 Rise Set
Actual Time 7:12 AM EST 6:12 PM EST
Civil Twilight 6:47 AM EST 6:36 PM EST
Nautical Twilight 6:20 AM EST 7:04 PM EST
Astronomical Twilight 5:52 AM EST 7:32 PM EST
Moon 11:45 AM EST (2/6) 12:26 AM EST (2/6)
Length of Visible Light 11h 48m
Length of Day
11h 00m
Waxing Crescent, 49% of the Moon is Illuminated
Feb 6
Waxing Crescent
Feb 6
First Quarter
Feb 14
Full
Feb 22
Last Quarter
Mar 1
New

Hourly Weather History & Observations

Time (EST) Temp. Dew Point Humidity Pressure Visibility Wind Dir Wind Speed Gust Speed Precip Events Conditions
12:15 AM 69.8 °F 69.8 °F 100% 30.06 in 3.0 mi Calm Calm - N/A   Overcast
12:35 AM 68.0 °F 68.0 °F 100% 30.06 in 1.8 mi Calm Calm - N/A   Overcast
12:55 AM 68.0 °F 68.0 °F 100% 30.06 in 2.0 mi Calm Calm - N/A   Overcast
1:15 AM 68.0 °F 68.0 °F 100% 30.06 in 2.5 mi WNW 3.5 mph - N/A   Overcast
1:35 AM 68.0 °F 68.0 °F 100% 30.06 in 5.0 mi Calm Calm - N/A   Overcast
1:55 AM 68.0 °F 68.0 °F 100% 30.07 in 5.0 mi Calm Calm - N/A   Overcast
2:15 AM 68.0 °F 68.0 °F 100% 30.07 in 4.0 mi Calm Calm - N/A   Overcast
2:35 AM 68.0 °F 68.0 °F 100% 30.06 in 5.0 mi Calm Calm - N/A   Mostly Cloudy
2:55 AM 68.0 °F 68.0 °F 100% 30.06 in 5.0 mi Calm Calm - N/A   Mostly Cloudy
3:15 AM 68.0 °F 68.0 °F 100% 30.06 in 5.0 mi Calm Calm - N/A   Overcast
3:35 AM 68.0 °F 68.0 °F 100% 30.06 in 3.0 mi NW 6.9 mph - N/A   Overcast
3:55 AM 64.4 °F 64.4 °F 100% 30.06 in 1.5 mi NNW 6.9 mph - N/A   Overcast
4:15 AM 64.4 °F 64.4 °F 100% 30.06 in 10.0 mi NNW 4.6 mph - N/A   Overcast
4:35 AM 64.4 °F 64.4 °F 100% 30.06 in 10.0 mi NNW 3.5 mph - N/A   Overcast
4:55 AM 64.4 °F 64.4 °F 100% 30.07 in 10.0 mi NNW 4.6 mph - N/A   Overcast
5:15 AM 64.4 °F 62.6 °F 94% 30.07 in 10.0 mi North - - N/A   Overcast
5:35 AM 64.4 °F 62.6 °F 94% 30.08 in 10.0 mi NNW 3.5 mph - N/A   Overcast
5:55 AM 64.4 °F 62.6 °F 94% 30.09 in 7.0 mi North 5.8 mph - N/A   Mostly Cloudy
6:53 AM 64.4 °F 62.6 °F 94% 30.10 in 7.0 mi Calm Calm - N/A   Mostly Cloudy
7:51 AM 64.4 °F 64.4 °F 100% 30.12 in 7.0 mi NNE 4.6 mph - N/A   Overcast
8:03 AM 66.2 °F 64.4 °F 94% 30.12 in 7.0 mi NNE 4.6 mph - N/A   Overcast
8:51 AM 66.2 °F 64.4 °F 94% 30.14 in 7.0 mi NNE 10.4 mph - N/A   Overcast
9:51 AM 64.4 °F 59.0 °F 83% 30.16 in 10.0 mi NE 9.2 mph - N/A   Overcast
10:55 AM 66.2 °F 57.2 °F 73% 30.16 in 10.0 mi North - - N/A   Overcast
11:55 AM 66.2 °F 55.4 °F 68% 30.15 in 10.0 mi NE 6.9 mph - N/A   Overcast
12:50 PM 66.2 °F 55.4 °F 68% 30.13 in 7.0 mi NE 10.4 mph - N/A   Overcast
1:50 PM 66.2 °F 59.0 °F 78% 30.09 in 7.0 mi East 8.1 mph - N/A   Overcast
2:50 PM 66.2 °F 57.2 °F 73% 30.08 in 8.0 mi ENE 8.1 mph - N/A   Overcast
3:55 PM 66.2 °F 57.2 °F 73% 30.07 in 10.0 mi ENE 8.1 mph - N/A   Overcast
4:50 PM 66.2 °F 57.2 °F 73% 30.07 in 12.0 mi NE 9.2 mph - N/A   Overcast
5:50 PM 64.4 °F 55.4 °F 73% 30.10 in 12.0 mi NE 6.9 mph - N/A   Overcast
6:50 PM 62.6 °F 55.4 °F 77% 30.11 in 12.0 mi NNE 6.9 mph - N/A   Overcast
7:50 PM 59.0 °F 53.6 °F 82% 30.13 in 12.0 mi NNE 9.2 mph - N/A   Overcast
8:50 PM 57.2 °F 51.8 °F 82% 30.16 in 12.0 mi NNE 11.5 mph - N/A   Overcast
9:50 PM 55.4 °F 51.8 °F 88% 30.18 in 12.0 mi NNE 11.5 mph - N/A   Overcast
9:55 PM 53.6 °F 50.0 °F 88% 30.18 in 10.0 mi North 12.7 mph - N/A   Overcast
10:15 PM 53.6 °F 50.0 °F 88% 30.18 in 10.0 mi North 13.8 mph - N/A   Overcast
10:35 PM 53.6 °F 48.2 °F 82% 30.19 in 10.0 mi North 11.5 mph 17.3 mph N/A   Overcast
10:55 PM 51.8 °F 48.2 °F 88% 30.19 in 10.0 mi North 13.8 mph 20.7 mph N/A   Overcast
11:15 PM 51.8 °F 46.4 °F 82% 30.20 in 10.0 mi North 15.0 mph 21.9 mph N/A   Overcast
11:35 PM 50.0 °F 46.4 °F 87% 30.19 in 10.0 mi NNE 13.8 mph 19.6 mph N/A   Overcast
11:55 PM 50.0 °F 46.4 °F 87% 30.18 in 10.0 mi NNE 13.8 mph 20.7 mph N/A   Overcast